Location: Newark
(52.3500°N, 175.9667°E)
Time: 20:51:49
(UTC+00:00)

Transit 4A - Pass Details

Date: 22 April 2021
Orbit: 871 x 974 km, 66.8° (Epoch: 16 May)

Event Time Altitude Azimuth Distance (km) Brightness Sun altitude
Rises 11:29:43 0° 208° (SSW) 3,620 - -24.6°
Reaches altitude 10° 11:32:17 10° 207° (SSW) 2,665 - -24.6°
Exits shadow 11:37:23 59° 181° (S) 1,072 7.8 -24.8°
Maximum altitude 11:38:27 72° 124° (SE) 979 7.8 -24.8°
Drops below altitude 10° 11:44:30 10° 42° (NE) 2,608 10.7 -25.0°
Sets 11:46:59 0° 40° (NE) 3,538 11.5 -25.0°
